COSMOS 2251 DEB

Satellite information

Favourite Embed

Satellite Type and Status

DEBRISIN ORBIT

Key statistics

Satellite COSMOS 2251 DEB at a glance.

Uptime

11876

Days in orbit

Revolutions

≈ 13.5

Per day

Orbit

LEO

Low Earth Orbit

Inclination

73.9

Latest

Satellite identification and parameters

Extended collection of information and parameters for COSMOS 2251 DEB.

Object identification

Identified? True

Debris? True

Object name: COSMOS 2251 DEB

International designator: 1993-036ABC

Object number (NORAD): 34813

Object ID (CCSDS): 34813

Country: COMMONWEALTH OF INDEPENDENT STATES (CIS)

Current information (Y/N): Y

RCS size: SMALL

Orbital parameters

Period: 106.687 minutes

Inclination: 73.9278 deg

SMA: 7451.331 km

Apoapsis: 1409.342 km

Periapsis: 737.049 km

RAAN: 196.7226 deg

Eccentricy: 0.0451123

Argument of periapsis: 237.9242 deg

Mean anomaly: 117.7316 deg

Mean motion: 13.49745849 rev/day

Mean motion (dot): 0.00002346 rev/day2

B* drag term: 0.0019861882 1/REarth

Two-line elements (TLE)

Creation date: Nov. 4, 2025, 4:40 a.m.

Reference frame: TEME

Reference center: EARTH

Epoch: Nov. 3, 2025, 1:59 a.m. UTC

TLE line 0: 0 COSMOS 2251 DEB

TLE line 1: 1 34813U 93036ABC 25307.08291615 .00002346 00000-0 19862-2 0 9992

TLE line 2: 2 34813 73.9278 196.7226 0451123 237.9242 117.7316 13.49745849811207

Live tracking on map

Real-time ground track for satellite COSMOS 2251 DEB.

In-orbit conjunctions

A list of the most updated potential collisions computed for object COSMOS 2251 DEB.

Target Orbit TCA Probability of collision Miss distance Type
ESSA 7 (TOS-E) SSO 2024-05-26 14:16:13 0.0001033197 508.0 (m) PAYLOAD

Associated space launch

Military communications satellite. Destroyed in a collision with Iridium 33.

COSMOS 2251 DEB was lifted into orbit during the mission ‘Kosmos-3M | Strela-2M 51’, on board a Kosmos-3M space rocket.

The launch took place on June 16, 1993, 4:17 a.m. from 132/1 (132L).

For more information about the launch, click the button.

Launch to space Kosmos-3M | Strela-2M 51
Kosmos-3M | Strela-2M 51

Agency: N/A

Status: Launch Successful

Launch date: June 16, 1993, 4:17 a.m. UTC

Rocket: Kosmos-3M

Launch pad: 132/1 (132L)

Location: Plesetsk Cosmodrome, Russian Federation

...

Latest news about this satellite

There are no fresh news available about this satellite. Check back as we update our databases every day.


Newsletter sign-up

Weekly statistics, charts and insights to help you stay on top of the space industry.